TNO5555 SBVT-SAWH

Flight info

Callsign TNO5555
Flight time 6h 3m
Altitude 34000
Route MABSI UZ44 ADA DCT KIDIG UM661 GAXUM DCT PUGLI/N0455F360 UT662 SALVU DCT DABLI DABLI2
Aircraft A20N/M-SDE2E3FGHIRWXY/LB1

Departure

Time 2026-04-28 20:41
Airport Eurico de Aguiar Salles International Airport (SBVT)

Arrival

Time 2026-04-29 02:44
Airport Ushuaia - Malvinas Argentinas International Airport (SAWH)
Time Latitude Longitude Altitude Speed Heading
2026-04-28 20:33 -20.25773 -40.28896 29 ft 0 kts 302°
2026-04-28 20:33 -20.25774 -40.28893 28 ft 2 kts 312°
2026-04-28 20:33 -20.25786 -40.28886 30 ft 0 kts 12°
2026-04-28 20:34 -20.25785 -40.28885 30 ft 0 kts 19°
2026-04-28 20:34 -20.25762 -40.28865 29 ft 10 kts 39°
2026-04-28 20:34 -20.25712 -40.28814 29 ft 9 kts 51°
2026-04-28 20:35 -20.25712 -40.28765 28 ft 6 kts 115°
2026-04-28 20:35 -20.25750 -40.28703 26 ft 14 kts 124°
2026-04-28 20:35 -20.25798 -40.28624 27 ft 11 kts 124°
2026-04-28 20:35 -20.25835 -40.28568 28 ft 8 kts 125°
2026-04-28 20:36 -20.25871 -40.28477 29 ft 18 kts 107°
2026-04-28 20:36 -20.25892 -40.28355 29 ft 16 kts 98°
2026-04-28 20:36 -20.25911 -40.28247 30 ft 14 kts 101°
2026-04-28 20:36 -20.25929 -40.28154 30 ft 12 kts 107°
2026-04-28 20:37 -20.25977 -40.28113 31 ft 8 kts 173°
2026-04-28 20:37 -20.26100 -40.28097 32 ft 19 kts 172°
2026-04-28 20:37 -20.26223 -40.28080 33 ft 17 kts 172°
2026-04-28 20:37 -20.26328 -40.28065 34 ft 14 kts 172°
2026-04-28 20:38 -20.26416 -40.28052 33 ft 12 kts 172°
2026-04-28 20:38 -20.26488 -40.28041 36 ft 9 kts 172°
2026-04-28 20:38 -20.26543 -40.28034 36 ft 7 kts 172°
2026-04-28 20:38 -20.26631 -40.28021 37 ft 16 kts 172°
2026-04-28 20:39 -20.26710 -40.27979 38 ft 12 kts 96°
2026-04-28 20:39 -20.26686 -40.27934 36 ft 7 kts 29°
2026-04-28 20:39 -20.26623 -40.27895 36 ft 16 kts 33°
2026-04-28 20:39 -20.26541 -40.27859 33 ft 0 kts 347°
2026-04-28 20:40 -20.26421 -40.27878 33 ft 47 kts 353°
2026-04-28 20:40 -20.25896 -40.27953 33 ft 106 kts 352°
2026-04-28 20:40 -20.24975 -40.28072 106 ft 150 kts 355°
2026-04-28 20:40 -20.23941 -40.28249 347 ft 174 kts 354°
2026-04-28 20:41 -20.22620 -40.28459 463 ft 207 kts 354°
2026-04-28 20:41 -20.21100 -40.28682 712 ft 235 kts 358°
2026-04-28 20:41 -20.19474 -40.28304 1023 ft 256 kts 33°
2026-04-28 20:41 -20.18303 -40.26895 1579 ft 257 kts 64°
2026-04-28 20:42 -20.17606 -40.25143 2218 ft 258 kts 65°
2026-04-28 20:42 -20.16917 -40.23370 2685 ft 263 kts 67°
2026-04-28 20:42 -20.16474 -40.21457 3175 ft 271 kts 84°
2026-04-28 20:42 -20.16775 -40.19456 3690 ft 280 kts 112°
2026-04-28 20:43 -20.17960 -40.17834 4317 ft 282 kts 143°
2026-04-28 20:43 -20.19758 -40.17015 4876 ft 285 kts 168°
2026-04-28 20:43 -20.21701 -40.16753 5463 ft 286 kts 175°
2026-04-28 20:43 -20.23688 -40.16586 6058 ft 287 kts 175°
2026-04-28 20:44 -20.25694 -40.16419 6561 ft 291 kts 175°
2026-04-28 20:44 -20.27721 -40.16238 7097 ft 293 kts 174°
2026-04-28 20:44 -20.29762 -40.16046 7618 ft 296 kts 173°
2026-04-28 20:44 -20.31817 -40.15846 8143 ft 298 kts 172°
2026-04-28 20:45 -20.33892 -40.15641 8712 ft 300 kts 172°
2026-04-28 20:45 -20.35969 -40.15433 9274 ft 301 kts 172°
2026-04-28 20:45 -20.38059 -40.15223 9807 ft 303 kts 172°
2026-04-28 20:45 -20.40169 -40.15011 10232 ft 309 kts 172°
2026-04-28 20:46 -20.42328 -40.14858 10426 ft 322 kts 175°
2026-04-28 20:46 -20.44616 -40.14805 10600 ft 335 kts 178°
2026-04-28 20:46 -20.46993 -40.14779 10766 ft 348 kts 178°
2026-04-28 20:46 -20.49454 -40.14757 10916 ft 360 kts 178°
2026-04-28 20:47 -20.51993 -40.14782 11098 ft 370 kts 182°
2026-04-28 20:47 -20.54546 -40.15299 11416 ft 377 kts 197°
2026-04-28 20:47 -20.56901 -40.16566 11717 ft 384 kts 215°
2026-04-28 20:47 -20.58872 -40.18499 12095 ft 386 kts 227°
2026-04-28 20:48 -20.60658 -40.20639 12555 ft 385 kts 230°
2026-04-28 20:48 -20.62396 -40.22784 12900 ft 389 kts 230°
2026-04-28 20:48 -20.64179 -40.24982 13233 ft 393 kts 230°
2026-04-28 20:48 -20.65973 -40.27183 13728 ft 392 kts 230°
2026-04-28 20:49 -20.67767 -40.29377 14127 ft 393 kts 230°
2026-04-28 20:49 -20.69573 -40.31584 14486 ft 395 kts 230°
2026-04-28 20:49 -20.71386 -40.33797 14828 ft 397 kts 230°
2026-04-28 20:49 -20.73209 -40.36021 15210 ft 398 kts 230°
2026-04-28 20:50 -20.75034 -40.38248 15601 ft 399 kts 230°
2026-04-28 20:50 -20.76840 -40.40453 15962 ft 401 kts 230°
2026-04-28 20:50 -20.78678 -40.42698 16341 ft 402 kts 230°
2026-04-28 20:50 -20.80518 -40.44945 16718 ft 403 kts 230°
2026-04-28 20:51 -20.82368 -40.47205 17084 ft 404 kts 230°
2026-04-28 20:51 -20.84223 -40.49472 17449 ft 405 kts 230°
2026-04-28 20:51 -20.86077 -40.51739 17812 ft 407 kts 230°
2026-04-28 20:51 -20.87315 -40.53253 18016 ft 408 kts 230°
2026-04-28 20:52 -20.89920 -40.56220 18435 ft 411 kts 224°
2026-04-28 20:52 -20.92158 -40.58137 18701 ft 414 kts 218°
2026-04-28 20:52 -20.94493 -40.59876 18952 ft 416 kts 215°
2026-04-28 20:52 -20.96928 -40.61563 19199 ft 418 kts 214°
2026-04-28 20:53 -21.01877 -40.64877 19688 ft 421 kts 214°
2026-04-28 20:53 -21.04364 -40.66546 19926 ft 423 kts 214°
2026-04-28 20:53 -21.06853 -40.68232 20160 ft 424 kts 214°
2026-04-28 20:54 -21.09340 -40.69930 20389 ft 425 kts 215°
2026-04-28 20:54 -21.11839 -40.71647 20602 ft 427 kts 215°
2026-04-28 20:54 -21.14309 -40.73349 20838 ft 429 kts 215°
2026-04-28 20:54 -21.16819 -40.75082 21092 ft 430 kts 215°
2026-04-28 20:55 -21.19338 -40.76822 21341 ft 432 kts 215°
2026-04-28 20:55 -21.21867 -40.78569 21588 ft 433 kts 215°
2026-04-28 20:55 -21.24403 -40.80321 21850 ft 435 kts 216°
2026-04-28 20:55 -21.26946 -40.82078 22133 ft 435 kts 216°
2026-04-28 20:56 -21.29495 -40.83840 22387 ft 437 kts 216°
2026-04-28 20:56 -21.32055 -40.85610 22638 ft 439 kts 216°
2026-04-28 20:56 -21.34590 -40.87363 22891 ft 440 kts 216°
2026-04-28 20:56 -21.37168 -40.89147 23133 ft 442 kts 216°
2026-04-28 20:57 -21.39755 -40.90938 23382 ft 443 kts 216°
2026-04-28 20:57 -21.42353 -40.92737 23622 ft 445 kts 216°
2026-04-28 20:57 -21.44962 -40.94545 23841 ft 447 kts 216°
2026-04-28 20:57 -21.47577 -40.96356 24058 ft 448 kts 216°
2026-04-28 20:58 -21.50196 -40.98171 24281 ft 449 kts 217°
2026-04-28 20:58 -21.52825 -40.99995 24507 ft 450 kts 217°
2026-04-28 20:58 -21.55422 -41.01798 24740 ft 451 kts 217°
2026-04-28 20:58 -21.58063 -41.03632 24981 ft 453 kts 217°
2026-04-28 20:59 -21.60711 -41.05472 25228 ft 454 kts 217°
2026-04-28 20:59 -21.62468 -41.06693 25391 ft 455 kts 217°
2026-04-28 20:59 -21.65803 -41.09011 25701 ft 456 kts 217°
2026-04-28 20:59 -21.68474 -41.10869 25956 ft 457 kts 217°
2026-04-28 21:00 -21.71146 -41.12728 26190 ft 459 kts 217°
2026-04-28 21:00 -21.73832 -41.14598 26415 ft 460 kts 217°
2026-04-28 21:00 -21.76487 -41.16447 26648 ft 461 kts 217°
2026-04-28 21:00 -21.79183 -41.18326 26878 ft 463 kts 217°
2026-04-28 21:01 -21.81891 -41.20213 27090 ft 464 kts 217°
2026-04-28 21:01 -21.84601 -41.22104 27305 ft 465 kts 217°
2026-04-28 21:01 -21.87325 -41.24004 27524 ft 467 kts 217°
2026-04-28 21:01 -21.90052 -41.25907 27804 ft 467 kts 217°
2026-04-28 21:02 -21.92768 -41.27803 28124 ft 465 kts 217°
2026-04-28 21:02 -21.95485 -41.29700 28424 ft 464 kts 217°
2026-04-28 21:02 -21.98190 -41.31591 28710 ft 464 kts 217°
2026-04-28 21:02 -22.00891 -41.33479 28996 ft 463 kts 217°
2026-04-28 21:03 -22.03589 -41.35367 29279 ft 462 kts 217°
2026-04-28 21:03 -22.06255 -41.37233 29497 ft 463 kts 217°
2026-04-28 21:03 -22.08953 -41.39123 29750 ft 462 kts 217°
2026-04-28 21:03 -22.11636 -41.41003 30032 ft 461 kts 218°
2026-04-28 21:04 -22.14333 -41.42894 30282 ft 461 kts 217°
2026-04-28 21:04 -22.17019 -41.44777 30503 ft 460 kts 217°
2026-04-28 21:04 -22.19694 -41.46653 30727 ft 458 kts 217°
2026-04-28 21:04 -22.22363 -41.48526 30957 ft 457 kts 217°
2026-04-28 21:05 -22.25027 -41.50397 31175 ft 456 kts 217°
2026-04-28 21:05 -22.27646 -41.52236 31396 ft 455 kts 218°
2026-04-28 21:05 -22.30294 -41.54098 31593 ft 454 kts 218°
2026-04-28 21:05 -22.32940 -41.55959 31802 ft 453 kts 218°
2026-04-28 21:06 -22.35580 -41.57816 31998 ft 452 kts 218°
2026-04-28 21:06 -22.38215 -41.59672 32193 ft 452 kts 217°
2026-04-28 21:06 -22.40842 -41.61521 32397 ft 450 kts 217°
2026-04-28 21:06 -22.43463 -41.63368 32600 ft 449 kts 217°
2026-04-28 21:07 -22.46080 -41.65212 32798 ft 448 kts 217°
2026-04-28 21:07 -22.47806 -41.66430 32926 ft 448 kts 218°
2026-04-28 21:07 -22.51262 -41.68868 33185 ft 447 kts 218°
2026-04-28 21:07 -22.53869 -41.70708 33366 ft 447 kts 218°
2026-04-28 21:08 -22.56468 -41.72543 33543 ft 446 kts 218°
2026-04-28 21:08 -22.59058 -41.74373 33722 ft 445 kts 218°
2026-04-28 21:08 -22.61649 -41.76205 33887 ft 444 kts 218°
2026-04-28 21:08 -22.64230 -41.78031 34033 ft 444 kts 218°
2026-04-28 21:09 -22.68532 -41.81080 34051 ft 446 kts 218°
2026-04-28 21:09 -22.74570 -41.85359 34044 ft 446 kts 218°
2026-04-28 21:10 -22.79758 -41.89036 34029 ft 445 kts 218°
2026-04-28 21:10 -22.84944 -41.92716 34028 ft 445 kts 218°
2026-04-28 21:11 -22.89253 -41.95774 34026 ft 445 kts 218°
2026-04-28 21:11 -22.95262 -42.00041 34029 ft 444 kts 218°
2026-04-28 21:12 -23.00436 -42.03721 34024 ft 445 kts 218°
2026-04-28 21:12 -23.05609 -42.07404 34037 ft 445 kts 218°
2026-04-28 21:13 -23.09907 -42.10467 34038 ft 444 kts 218°
2026-04-28 21:13 -23.15068 -42.14149 34051 ft 444 kts 218°
2026-04-28 21:14 -23.20229 -42.17834 34047 ft 444 kts 218°
2026-04-28 21:14 -23.25355 -42.21499 34076 ft 444 kts 218°
2026-04-28 21:15 -23.30514 -42.25189 34062 ft 444 kts 218°
2026-04-28 21:15 -23.35675 -42.28885 34068 ft 444 kts 218°
2026-04-28 21:16 -23.40830 -42.32580 34059 ft 444 kts 218°
2026-04-28 21:16 -23.45949 -42.36253 34060 ft 444 kts 219°
2026-04-28 21:17 -23.51099 -42.39950 34059 ft 443 kts 219°
2026-04-28 21:17 -23.56250 -42.43653 34056 ft 443 kts 219°
2026-04-28 21:18 -23.61395 -42.47355 34056 ft 443 kts 219°
2026-04-28 21:18 -23.66510 -42.51038 34057 ft 443 kts 219°
2026-04-28 21:19 -23.71790 -42.54551 34059 ft 446 kts 215°
2026-04-28 21:19 -23.77216 -42.57843 34058 ft 446 kts 214°
2026-04-28 21:20 -23.82651 -42.61118 34061 ft 446 kts 214°
2026-04-28 21:20 -23.88033 -42.64402 34059 ft 445 kts 215°
2026-04-28 21:21 -23.93430 -42.67721 34058 ft 445 kts 215°
2026-04-28 21:21 -23.98829 -42.71051 34059 ft 445 kts 215°
2026-04-28 21:22 -24.04225 -42.74382 34056 ft 445 kts 215°
2026-04-28 21:22 -24.09582 -42.77690 34056 ft 445 kts 215°
2026-04-28 21:23 -24.14977 -42.81024 34061 ft 445 kts 215°
2026-04-28 21:23 -24.20369 -42.84360 34061 ft 445 kts 215°
2026-04-28 21:24 -24.25762 -42.87699 34059 ft 446 kts 215°
2026-04-28 21:24 -24.31129 -42.91027 34059 ft 446 kts 215°
2026-04-28 21:25 -24.36536 -42.94381 34061 ft 446 kts 215°
2026-04-28 21:25 -24.41941 -42.97738 34066 ft 446 kts 215°
2026-04-28 21:26 -24.47347 -43.01099 34061 ft 447 kts 215°
2026-04-28 21:26 -24.52721 -43.04443 34063 ft 447 kts 215°
2026-04-28 21:27 -24.58131 -43.07813 34064 ft 447 kts 215°
2026-04-28 21:27 -24.63536 -43.11182 34064 ft 445 kts 216°
2026-04-28 21:28 -24.68918 -43.14540 34067 ft 444 kts 216°
2026-04-28 21:28 -24.74294 -43.17900 34066 ft 445 kts 216°
2026-04-28 21:29 -24.79636 -43.21242 34073 ft 444 kts 216°
2026-04-28 21:29 -24.85004 -43.24602 34071 ft 443 kts 216°
2026-04-28 21:30 -24.90365 -43.27962 34072 ft 443 kts 216°
2026-04-28 21:30 -24.95690 -43.31303 34071 ft 443 kts 216°
2026-04-28 21:31 -25.01044 -43.34665 34073 ft 443 kts 217°
2026-04-28 21:31 -25.06390 -43.38025 34072 ft 442 kts 217°
2026-04-28 21:32 -25.11728 -43.41384 34075 ft 442 kts 217°
2026-04-28 21:32 -25.17067 -43.44748 34076 ft 442 kts 217°
2026-04-28 21:33 -25.22355 -43.48081 34079 ft 440 kts 217°
2026-04-28 21:33 -25.27666 -43.51432 34077 ft 439 kts 217°
2026-04-28 21:34 -25.32976 -43.54788 34080 ft 440 kts 217°
2026-04-28 21:34 -25.38278 -43.58141 34082 ft 438 kts 217°
2026-04-28 21:35 -25.43534 -43.61468 34080 ft 438 kts 217°
2026-04-28 21:35 -25.48819 -43.64818 34083 ft 438 kts 217°
2026-04-28 21:36 -25.54104 -43.68174 34089 ft 438 kts 217°
2026-04-28 21:36 -25.59382 -43.71528 34085 ft 437 kts 218°
2026-04-28 21:37 -25.64612 -43.74854 34087 ft 436 kts 218°
2026-04-28 21:37 -25.69875 -43.78205 34086 ft 436 kts 218°
2026-04-28 21:38 -25.75139 -43.81557 34093 ft 436 kts 218°
2026-04-28 21:38 -25.80392 -43.84904 34091 ft 435 kts 218°
2026-04-28 21:39 -25.85648 -43.88256 34082 ft 436 kts 218°
2026-04-28 21:39 -25.90866 -43.91589 34086 ft 436 kts 218°
2026-04-28 21:40 -25.96119 -43.94948 34088 ft 436 kts 218°
2026-04-28 21:40 -26.01372 -43.98311 34093 ft 436 kts 218°
2026-04-28 21:41 -26.06628 -44.01680 34108 ft 436 kts 218°
2026-04-28 21:41 -26.11839 -44.05023 34098 ft 435 kts 218°
2026-04-28 21:42 -26.17081 -44.08390 34096 ft 435 kts 218°
2026-04-28 21:42 -26.22325 -44.11762 34097 ft 435 kts 218°
2026-04-28 21:43 -26.27563 -44.15134 34102 ft 434 kts 219°
2026-04-28 21:43 -26.32794 -44.18503 34102 ft 434 kts 219°
2026-04-28 21:44 -26.37985 -44.21851 34102 ft 434 kts 219°
2026-04-28 21:44 -26.43213 -44.25228 34115 ft 435 kts 219°
2026-04-28 21:45 -26.48443 -44.28607 34109 ft 434 kts 219°
2026-04-28 21:45 -26.53630 -44.31964 34106 ft 434 kts 219°
2026-04-28 21:46 -26.58855 -44.35349 34110 ft 434 kts 219°
2026-04-28 21:46 -26.64078 -44.38735 34119 ft 434 kts 219°
2026-04-28 21:47 -26.69299 -44.42124 34108 ft 434 kts 219°
2026-04-28 21:47 -26.74481 -44.45492 34107 ft 434 kts 219°
2026-04-28 21:48 -26.79699 -44.48886 34114 ft 434 kts 220°
2026-04-28 21:48 -26.84923 -44.52289 34116 ft 435 kts 220°
2026-04-28 21:49 -26.90147 -44.55694 34113 ft 435 kts 220°
2026-04-28 21:49 -26.95338 -44.59081 34122 ft 434 kts 220°
2026-04-28 21:50 -27.00559 -44.62491 34121 ft 434 kts 220°
2026-04-28 21:50 -27.05779 -44.65906 34117 ft 434 kts 220°
2026-04-28 21:51 -27.10997 -44.69323 34130 ft 434 kts 220°
2026-04-28 21:51 -27.16215 -44.72743 34117 ft 434 kts 220°
2026-04-28 21:52 -27.21398 -44.76144 34117 ft 434 kts 220°
2026-04-28 21:52 -27.26611 -44.79568 34115 ft 434 kts 220°
2026-04-28 21:53 -27.31827 -44.82998 34116 ft 434 kts 221°
2026-04-28 21:53 -27.37040 -44.86430 34116 ft 434 kts 221°
2026-04-28 21:54 -27.42220 -44.89844 34116 ft 434 kts 221°
2026-04-28 21:54 -27.47432 -44.93283 34125 ft 434 kts 221°
2026-04-28 21:55 -27.52638 -44.96721 34118 ft 434 kts 221°
2026-04-28 21:55 -27.57816 -45.00145 34119 ft 434 kts 221°
2026-04-28 21:56 -27.63019 -45.03590 34116 ft 434 kts 221°
2026-04-28 21:56 -27.68226 -45.07041 34116 ft 434 kts 221°
2026-04-28 21:57 -27.73435 -45.10496 34119 ft 434 kts 221°
2026-04-28 21:57 -27.78639 -45.13953 34119 ft 434 kts 221°
2026-04-28 21:58 -27.83843 -45.17413 34119 ft 434 kts 221°
2026-04-28 21:58 -27.89013 -45.20855 34120 ft 434 kts 221°
2026-04-28 21:59 -27.94213 -45.24320 34126 ft 434 kts 221°
2026-04-28 22:00 -28.02018 -45.29529 34116 ft 434 kts 221°
2026-04-28 22:00 -28.07225 -45.33009 34122 ft 434 kts 221°
2026-04-28 22:01 -28.12391 -45.36466 34121 ft 434 kts 221°
2026-04-28 22:01 -28.17594 -45.39951 34125 ft 434 kts 222°
2026-04-28 22:02 -28.22795 -45.43439 34148 ft 435 kts 222°
2026-04-28 22:02 -28.27991 -45.46927 34117 ft 434 kts 222°
2026-04-28 22:03 -28.33151 -45.50395 34120 ft 434 kts 222°
2026-04-28 22:03 -28.38341 -45.53890 34124 ft 434 kts 222°
2026-04-28 22:04 -28.43531 -45.57390 34127 ft 434 kts 222°
2026-04-28 22:04 -28.48720 -45.60892 34122 ft 434 kts 222°
2026-04-28 22:05 -28.53908 -45.64396 34126 ft 433 kts 223°
2026-04-28 22:05 -28.59049 -45.67870 34122 ft 432 kts 223°
2026-04-28 22:06 -28.64214 -45.71365 34121 ft 432 kts 223°
2026-04-28 22:06 -28.69387 -45.74868 34123 ft 432 kts 223°
2026-04-28 22:07 -28.74556 -45.78372 34129 ft 432 kts 223°
2026-04-28 22:07 -28.79722 -45.81879 34121 ft 432 kts 223°
2026-04-28 22:08 -28.84846 -45.85361 34115 ft 431 kts 223°
2026-04-28 22:08 -28.89984 -45.88858 34113 ft 430 kts 223°
2026-04-28 22:09 -28.95120 -45.92361 34123 ft 430 kts 223°
2026-04-28 22:09 -29.00257 -45.95867 34126 ft 430 kts 223°
2026-04-28 22:10 -29.05357 -45.99351 34115 ft 429 kts 224°
2026-04-28 22:10 -29.10482 -46.02855 34141 ft 429 kts 224°
2026-04-28 22:11 -29.15596 -46.06356 34124 ft 427 kts 224°
2026-04-28 22:11 -29.20692 -46.09850 34123 ft 427 kts 224°
2026-04-28 22:12 -29.25756 -46.13328 34123 ft 427 kts 224°
2026-04-28 22:12 -29.30853 -46.16830 34122 ft 427 kts 224°
2026-04-28 22:13 -29.35945 -46.20332 34119 ft 426 kts 224°
2026-04-28 22:13 -29.41028 -46.23832 34122 ft 426 kts 224°
2026-04-28 22:14 -29.46062 -46.27303 34119 ft 425 kts 224°
2026-04-28 22:14 -29.51127 -46.30801 34118 ft 425 kts 224°
2026-04-28 22:15 -29.56191 -46.34302 34119 ft 425 kts 224°
2026-04-28 22:15 -29.61252 -46.37805 34133 ft 425 kts 225°
2026-04-28 22:16 -29.66311 -46.41310 34118 ft 424 kts 225°
2026-04-28 22:16 -29.71329 -46.44790 34127 ft 424 kts 225°
2026-04-28 22:17 -29.76378 -46.48296 34117 ft 424 kts 225°
2026-04-28 22:17 -29.81422 -46.51804 34106 ft 423 kts 225°
2026-04-28 22:18 -29.86462 -46.55314 34118 ft 423 kts 225°
2026-04-28 22:18 -29.91466 -46.58801 34114 ft 423 kts 225°
2026-04-28 22:19 -29.96499 -46.62311 34111 ft 422 kts 225°
2026-04-28 22:19 -30.01521 -46.65819 34113 ft 421 kts 225°
2026-04-28 22:20 -30.06526 -46.69320 34112 ft 420 kts 225°
2026-04-28 22:20 -30.11495 -46.72802 34112 ft 421 kts 225°
2026-04-28 22:21 -30.16497 -46.76310 34113 ft 421 kts 225°
2026-04-28 22:21 -30.21499 -46.79822 34109 ft 421 kts 225°
2026-04-28 22:22 -30.26500 -46.83337 34121 ft 421 kts 225°
2026-04-28 22:22 -30.31462 -46.86826 34109 ft 419 kts 226°
2026-04-28 22:23 -30.36433 -46.90326 34111 ft 418 kts 226°
2026-04-28 22:23 -30.41394 -46.93828 34111 ft 418 kts 226°
2026-04-28 22:24 -30.46358 -46.97336 34131 ft 418 kts 226°
2026-04-28 22:24 -30.51285 -47.00819 34109 ft 417 kts 226°
2026-04-28 22:25 -30.56236 -47.04324 34104 ft 417 kts 226°
2026-04-28 22:25 -30.61186 -47.07833 34101 ft 417 kts 226°
2026-04-28 22:26 -30.66131 -47.11343 34110 ft 417 kts 226°
2026-04-28 22:26 -30.71047 -47.14836 34101 ft 417 kts 226°
2026-04-28 22:27 -30.75994 -47.18355 34128 ft 417 kts 226°
2026-04-28 22:27 -30.80929 -47.21869 34100 ft 415 kts 226°
2026-04-28 22:28 -30.85856 -47.25382 34113 ft 415 kts 226°
2026-04-28 22:28 -30.90742 -47.28870 34097 ft 415 kts 226°
2026-04-28 22:29 -30.95653 -47.32382 34096 ft 414 kts 226°
2026-04-28 22:29 -31.00568 -47.35901 34095 ft 414 kts 226°
2026-04-28 22:30 -31.05478 -47.39420 34108 ft 414 kts 226°
2026-04-28 22:30 -31.10386 -47.42940 34094 ft 414 kts 226°
2026-04-28 22:31 -31.15256 -47.46439 34109 ft 414 kts 227°
2026-04-28 22:31 -31.20161 -47.49969 34093 ft 414 kts 227°
2026-04-28 22:32 -31.25059 -47.53501 34085 ft 414 kts 227°
2026-04-28 22:32 -31.29964 -47.57040 34088 ft 414 kts 227°
2026-04-28 22:33 -31.34867 -47.60580 34090 ft 415 kts 227°
2026-04-28 22:33 -31.39752 -47.64114 34086 ft 416 kts 226°
2026-04-28 22:34 -31.44679 -47.67679 34093 ft 416 kts 226°
2026-04-28 22:34 -31.49607 -47.71245 34083 ft 417 kts 226°
2026-04-28 22:35 -31.54539 -47.74819 34084 ft 417 kts 226°
2026-04-28 22:35 -31.59442 -47.78379 34083 ft 417 kts 226°
2026-04-28 22:36 -31.64368 -47.81962 34086 ft 417 kts 226°
2026-04-28 22:36 -31.69308 -47.85562 34083 ft 418 kts 226°
2026-04-28 22:37 -31.74254 -47.89169 34082 ft 418 kts 226°
2026-04-28 22:37 -31.79163 -47.92751 34080 ft 418 kts 226°
2026-04-28 22:38 -31.84109 -47.96367 34083 ft 419 kts 226°
2026-04-28 22:38 -31.89057 -47.99988 34081 ft 419 kts 226°
2026-04-28 22:39 -31.94001 -48.03613 34077 ft 419 kts 226°
2026-04-28 22:39 -31.98946 -48.07242 34075 ft 419 kts 226°
2026-04-28 22:40 -32.03899 -48.10881 34079 ft 419 kts 226°
2026-04-28 22:40 -32.08815 -48.14499 34075 ft 420 kts 226°
2026-04-28 22:41 -32.13773 -48.18151 34073 ft 420 kts 226°
2026-04-28 22:41 -32.18726 -48.21804 34074 ft 420 kts 226°
2026-04-28 22:42 -32.23682 -48.25467 34075 ft 421 kts 225°
2026-04-28 22:42 -32.28644 -48.29136 34074 ft 421 kts 225°
2026-04-28 22:43 -32.33573 -48.32786 34074 ft 421 kts 225°
2026-04-28 22:43 -32.38538 -48.36468 34070 ft 421 kts 225°
2026-04-28 22:44 -32.43502 -48.40153 34067 ft 421 kts 225°
2026-04-28 22:44 -32.48467 -48.43844 34100 ft 421 kts 226°
2026-04-28 22:45 -32.53395 -48.47512 34064 ft 421 kts 226°
2026-04-28 22:45 -32.58347 -48.51204 34061 ft 421 kts 226°
2026-04-28 22:46 -32.63303 -48.54902 34065 ft 420 kts 226°
2026-04-28 22:46 -32.68245 -48.58596 34062 ft 420 kts 226°
2026-04-28 22:47 -32.73149 -48.62268 34058 ft 420 kts 226°
2026-04-28 22:47 -32.78091 -48.65971 34085 ft 420 kts 226°
2026-04-28 22:48 -32.83022 -48.69670 34059 ft 419 kts 226°
2026-04-28 22:48 -32.87945 -48.73369 34071 ft 418 kts 226°
2026-04-28 22:49 -32.92832 -48.77046 34059 ft 418 kts 226°
2026-04-28 22:49 -32.97744 -48.80748 34058 ft 418 kts 226°
2026-04-28 22:50 -33.02658 -48.84455 34059 ft 418 kts 226°
2026-04-28 22:50 -33.07567 -48.88164 34054 ft 418 kts 226°
2026-04-28 22:51 -33.12445 -48.91854 34053 ft 418 kts 226°
2026-04-28 22:51 -33.17353 -48.95572 34071 ft 418 kts 226°
2026-04-28 22:52 -33.22261 -48.99294 34050 ft 418 kts 226°
2026-04-28 22:52 -33.27169 -49.03021 34052 ft 418 kts 226°
2026-04-28 22:53 -33.32074 -49.06752 34054 ft 418 kts 226°
2026-04-28 22:53 -33.36945 -49.10461 34054 ft 418 kts 226°
2026-04-28 22:54 -33.41847 -49.14199 34048 ft 418 kts 226°
2026-04-28 22:54 -33.46744 -49.17939 34048 ft 418 kts 226°
2026-04-28 22:55 -33.51640 -49.21683 34045 ft 418 kts 226°
2026-04-28 22:55 -33.56504 -49.25407 34045 ft 417 kts 226°
2026-04-28 22:56 -33.61394 -49.29156 34045 ft 417 kts 226°
2026-04-28 22:56 -33.66283 -49.32910 34047 ft 417 kts 226°
2026-04-28 22:57 -33.71166 -49.36663 34048 ft 416 kts 226°
2026-04-28 22:57 -33.76007 -49.40390 34067 ft 416 kts 226°
2026-04-28 22:58 -33.80875 -49.44141 34036 ft 415 kts 226°
2026-04-28 22:58 -33.85726 -49.47886 34038 ft 414 kts 226°
2026-04-28 22:59 -33.90576 -49.51637 34039 ft 414 kts 226°
2026-04-28 22:59 -33.95394 -49.55368 34032 ft 415 kts 226°
2026-04-28 23:00 -34.00249 -49.59133 34037 ft 415 kts 226°
2026-04-28 23:00 -34.05102 -49.62904 34049 ft 415 kts 226°
2026-04-28 23:01 -34.09963 -49.66686 34037 ft 416 kts 226°
2026-04-28 23:01 -34.14830 -49.70476 34031 ft 416 kts 226°
2026-04-28 23:02 -34.19665 -49.74244 34031 ft 416 kts 226°
2026-04-28 23:02 -34.24534 -49.78044 34035 ft 418 kts 226°
2026-04-28 23:03 -34.29425 -49.81867 34030 ft 419 kts 226°
2026-04-28 23:03 -34.34316 -49.85693 34030 ft 419 kts 226°
2026-04-28 23:04 -34.39183 -49.89508 34024 ft 420 kts 226°
2026-04-28 23:04 -34.46545 -49.95287 34024 ft 420 kts 226°
2026-04-28 23:05 -34.51452 -49.99147 34027 ft 420 kts 226°
2026-04-28 23:05 -34.56356 -50.03010 34017 ft 421 kts 226°
2026-04-28 23:06 -34.61234 -50.06858 34046 ft 421 kts 226°
2026-04-28 23:06 -34.66139 -50.10732 34018 ft 420 kts 226°
2026-04-28 23:07 -34.71035 -50.14605 34015 ft 420 kts 226°
2026-04-28 23:07 -34.75929 -50.18483 34015 ft 420 kts 226°
2026-04-28 23:08 -34.80791 -50.22337 34012 ft 419 kts 225°
2026-04-28 23:08 -34.85655 -50.26200 34013 ft 417 kts 225°
2026-04-28 23:09 -34.90517 -50.30071 34040 ft 418 kts 225°
2026-04-28 23:09 -34.95376 -50.33945 34003 ft 417 kts 225°
2026-04-28 23:10 -35.00197 -50.37792 34004 ft 417 kts 225°
2026-04-28 23:10 -35.05053 -50.41674 34001 ft 417 kts 225°
2026-04-28 23:11 -35.09905 -50.45557 34002 ft 417 kts 224°
2026-04-28 23:11 -35.14756 -50.49445 34002 ft 417 kts 224°
2026-04-28 23:12 -35.19609 -50.53340 34022 ft 417 kts 223°
2026-04-28 23:12 -35.24430 -50.57215 33998 ft 418 kts 223°
2026-04-28 23:13 -35.29284 -50.61123 33999 ft 418 kts 223°
2026-04-28 23:13 -35.34139 -50.65036 34015 ft 418 kts 222°
2026-04-28 23:14 -35.38986 -50.68945 33993 ft 416 kts 223°
2026-04-28 23:14 -35.43785 -50.72825 33993 ft 416 kts 223°
2026-04-28 23:15 -35.48612 -50.76736 33999 ft 416 kts 222°
2026-04-28 23:15 -35.53436 -50.80648 33987 ft 415 kts 222°
2026-04-28 23:16 -35.58258 -50.84563 33995 ft 415 kts 222°
2026-04-28 23:16 -35.63044 -50.88455 34007 ft 415 kts 221°
2026-04-28 23:17 -35.67857 -50.92372 33983 ft 414 kts 221°
2026-04-28 23:17 -35.72661 -50.96290 33986 ft 414 kts 221°
2026-04-28 23:18 -35.77460 -51.00213 33995 ft 414 kts 221°
2026-04-28 23:18 -35.82222 -51.04109 33983 ft 414 kts 221°
2026-04-28 23:19 -35.87012 -51.08032 33982 ft 413 kts 221°
2026-04-28 23:19 -35.91800 -51.11960 33982 ft 413 kts 221°
2026-04-28 23:20 -35.96590 -51.15896 33982 ft 413 kts 221°
2026-04-28 23:20 -36.01343 -51.19806 33982 ft 413 kts 221°
2026-04-28 23:21 -36.06125 -51.23748 33984 ft 413 kts 220°
2026-04-28 23:21 -36.10893 -51.27683 33977 ft 412 kts 220°
2026-04-28 23:22 -36.15663 -51.31625 33975 ft 412 kts 220°
2026-04-28 23:22 -36.20391 -51.35538 33980 ft 411 kts 219°
2026-04-28 23:23 -36.25126 -51.39462 33977 ft 408 kts 219°
2026-04-28 23:23 -36.29845 -51.43379 33973 ft 408 kts 219°
2026-04-28 23:24 -36.34564 -51.47303 33971 ft 408 kts 219°
2026-04-28 23:24 -36.39245 -51.51201 33972 ft 408 kts 219°
2026-04-28 23:25 -36.43960 -51.55133 33972 ft 408 kts 219°
2026-04-28 23:25 -36.48668 -51.59063 33973 ft 407 kts 219°
2026-04-28 23:26 -36.53360 -51.62985 33969 ft 406 kts 219°
2026-04-28 23:26 -36.58010 -51.66882 33968 ft 406 kts 219°
2026-04-28 23:27 -36.62690 -51.70812 33975 ft 406 kts 218°
2026-04-28 23:27 -36.67369 -51.74743 33972 ft 406 kts 218°
2026-04-28 23:28 -36.72045 -51.78676 33967 ft 405 kts 218°
2026-04-28 23:28 -36.76716 -51.82609 33959 ft 404 kts 217°
2026-04-28 23:29 -36.81325 -51.86496 33959 ft 401 kts 217°
2026-04-28 23:29 -36.85945 -51.90402 33957 ft 401 kts 217°
2026-04-28 23:30 -36.90561 -51.94311 33961 ft 401 kts 217°
2026-04-28 23:30 -36.95166 -51.98214 33957 ft 399 kts 217°
2026-04-28 23:31 -36.99732 -52.02091 33954 ft 399 kts 217°
2026-04-28 23:31 -37.04327 -52.05996 33956 ft 398 kts 216°
2026-04-28 23:32 -37.08875 -52.09867 33953 ft 393 kts 216°
2026-04-28 23:32 -37.13392 -52.13719 33954 ft 393 kts 216°
2026-04-28 23:33 -37.17877 -52.17551 33973 ft 393 kts 216°
2026-04-28 23:33 -37.22384 -52.21406 33945 ft 391 kts 216°
2026-04-28 23:34 -37.26876 -52.25252 33944 ft 391 kts 216°
2026-04-28 23:34 -37.31362 -52.29100 33937 ft 390 kts 215°
2026-04-28 23:35 -37.35820 -52.32928 33944 ft 385 kts 215°
2026-04-28 23:35 -37.40236 -52.36727 33941 ft 384 kts 215°
2026-04-28 23:36 -37.44618 -52.40502 33938 ft 384 kts 215°
2026-04-28 23:36 -37.49017 -52.44300 33938 ft 382 kts 214°
2026-04-28 23:37 -37.53392 -52.48078 33939 ft 381 kts 214°
2026-04-28 23:37 -37.57761 -52.51857 33937 ft 381 kts 214°
2026-04-28 23:38 -37.62108 -52.55622 33928 ft 376 kts 213°
2026-04-28 23:38 -37.66394 -52.59342 33928 ft 373 kts 213°
2026-04-28 23:39 -37.70639 -52.63030 33927 ft 373 kts 213°
2026-04-28 23:39 -37.74913 -52.66749 33933 ft 373 kts 213°
2026-04-28 23:40 -37.79183 -52.70470 33924 ft 372 kts 213°
2026-04-28 23:40 -37.83445 -52.74190 33924 ft 372 kts 213°
2026-04-28 23:41 -37.87705 -52.77912 33913 ft 371 kts 213°
2026-04-28 23:41 -37.91908 -52.81592 33920 ft 365 kts 213°
2026-04-28 23:42 -37.96051 -52.85223 33914 ft 364 kts 213°
2026-04-28 23:42 -38.00217 -52.88878 33914 ft 364 kts 213°
2026-04-28 23:43 -38.04378 -52.92535 33914 ft 363 kts 213°
2026-04-28 23:43 -38.08518 -52.96178 33912 ft 362 kts 213°
2026-04-28 23:44 -38.12628 -52.99800 33909 ft 362 kts 213°
2026-04-28 23:44 -38.16750 -53.03438 33906 ft 359 kts 212°
2026-04-28 23:45 -38.20834 -53.07048 33903 ft 357 kts 212°
2026-04-28 23:45 -38.24907 -53.10652 33901 ft 357 kts 212°
2026-04-28 23:46 -38.28954 -53.14238 33911 ft 357 kts 212°
2026-04-28 23:46 -38.33022 -53.17848 33897 ft 356 kts 212°
2026-04-28 23:47 -38.37087 -53.21461 33897 ft 356 kts 212°
2026-04-28 23:47 -38.41147 -53.25074 33894 ft 356 kts 212°
2026-04-28 23:48 -38.45177 -53.28664 33889 ft 355 kts 212°
2026-04-28 23:48 -38.49221 -53.32274 33894 ft 355 kts 212°
2026-04-28 23:49 -38.53264 -53.35887 33887 ft 355 kts 212°
2026-04-28 23:49 -38.57306 -53.39505 33894 ft 355 kts 212°
2026-04-28 23:50 -38.61318 -53.43100 33889 ft 354 kts 212°
2026-04-28 23:50 -38.65356 -53.46724 33882 ft 354 kts 212°
2026-04-28 23:51 -38.69391 -53.50350 33881 ft 354 kts 212°
2026-04-28 23:51 -38.72743 -53.53366 33883 ft 354 kts 212°
2026-04-28 23:52 -38.77428 -53.57588 33880 ft 354 kts 212°
2026-04-28 23:52 -38.81462 -53.61228 33878 ft 354 kts 212°
2026-04-28 23:53 -38.85489 -53.64868 33873 ft 354 kts 212°
2026-04-28 23:53 -38.88845 -53.67904 33874 ft 356 kts 212°
2026-04-28 23:54 -38.93547 -53.72164 33871 ft 356 kts 213°
2026-04-28 23:54 -38.96943 -53.75246 33872 ft 357 kts 213°
2026-04-28 23:55 -39.01656 -53.79529 33870 ft 357 kts 213°
2026-04-28 23:55 -39.05027 -53.82597 33870 ft 357 kts 213°
2026-04-28 23:56 -39.09741 -53.86894 33870 ft 357 kts 213°
2026-04-28 23:56 -39.13110 -53.89969 33888 ft 357 kts 213°
2026-04-28 23:57 -39.17157 -53.93668 33867 ft 356 kts 213°
2026-04-28 23:57 -39.21196 -53.97364 33873 ft 356 kts 213°
2026-04-28 23:58 -39.25893 -54.01669 33869 ft 357 kts 213°
2026-04-28 23:58 -39.29288 -54.04785 33870 ft 358 kts 213°
2026-04-28 23:59 -39.33314 -54.08486 33870 ft 358 kts 213°
2026-04-28 23:59 -39.37369 -54.12219 33871 ft 358 kts 213°
2026-04-29 00:00 -39.41421 -54.15955 33882 ft 358 kts 213°
2026-04-29 00:00 -39.45446 -54.19671 33870 ft 358 kts 213°
2026-04-29 00:01 -39.49492 -54.23411 33868 ft 358 kts 213°
2026-04-29 00:01 -39.53541 -54.27159 33865 ft 358 kts 213°
2026-04-29 00:02 -39.57588 -54.30912 33863 ft 358 kts 214°
2026-04-29 00:02 -39.61619 -54.34655 33865 ft 359 kts 214°
2026-04-29 00:03 -39.65676 -54.38428 33859 ft 359 kts 214°
2026-04-29 00:03 -39.69734 -54.42208 33869 ft 359 kts 214°
2026-04-29 00:04 -39.73786 -54.45987 33853 ft 359 kts 214°
2026-04-29 00:04 -39.77813 -54.49749 33855 ft 359 kts 214°
2026-04-29 00:05 -39.81870 -54.53543 33855 ft 359 kts 214°
2026-04-29 00:05 -39.85928 -54.57346 33855 ft 359 kts 214°
2026-04-29 00:06 -39.89984 -54.61152 33849 ft 359 kts 215°
2026-04-29 00:06 -39.94042 -54.64967 33851 ft 360 kts 215°
2026-04-29 00:07 -39.98073 -54.68759 33870 ft 360 kts 215°
2026-04-29 00:07 -40.02130 -54.72581 33842 ft 360 kts 215°
2026-04-29 00:08 -40.06186 -54.76410 33839 ft 360 kts 215°
2026-04-29 00:08 -40.10242 -54.80244 33837 ft 360 kts 215°
2026-04-29 00:09 -40.14272 -54.84060 33837 ft 360 kts 215°
2026-04-29 00:09 -40.18330 -54.87907 33837 ft 360 kts 215°
2026-04-29 00:10 -40.22385 -54.91757 33826 ft 360 kts 216°
2026-04-29 00:10 -40.26445 -54.95617 33851 ft 361 kts 216°
2026-04-29 00:11 -40.30504 -54.99484 33829 ft 361 kts 216°
2026-04-29 00:12 -40.36589 -55.05291 33820 ft 361 kts 216°
2026-04-29 00:12 -40.40617 -55.09141 33823 ft 361 kts 216°
2026-04-29 00:13 -40.44681 -55.13033 33818 ft 362 kts 216°
2026-04-29 00:13 -40.48750 -55.16936 33818 ft 362 kts 216°
2026-04-29 00:14 -40.52814 -55.20839 33818 ft 362 kts 216°
2026-04-29 00:14 -40.56878 -55.24749 33821 ft 363 kts 216°
2026-04-29 00:15 -40.60929 -55.28653 33812 ft 363 kts 216°
2026-04-29 00:15 -40.65007 -55.32587 33813 ft 363 kts 216°
2026-04-29 00:16 -40.69083 -55.36525 33807 ft 363 kts 217°
2026-04-29 00:16 -40.73157 -55.40469 33810 ft 364 kts 217°
2026-04-29 00:17 -40.77206 -55.44393 33809 ft 364 kts 217°
2026-04-29 00:17 -40.81280 -55.48349 33807 ft 364 kts 217°
2026-04-29 00:18 -40.85356 -55.52313 33823 ft 364 kts 217°
2026-04-29 00:18 -40.89428 -55.56280 33786 ft 364 kts 217°
2026-04-29 00:19 -40.93485 -55.60238 33799 ft 366 kts 217°
2026-04-29 00:19 -40.97581 -55.64239 33796 ft 366 kts 217°
2026-04-29 00:20 -41.01677 -55.68246 33791 ft 366 kts 217°
2026-04-29 00:20 -41.05775 -55.72262 33776 ft 366 kts 218°
2026-04-29 00:21 -41.09858 -55.76270 33788 ft 369 kts 218°
2026-04-29 00:21 -41.13986 -55.80329 33788 ft 370 kts 218°
2026-04-29 00:22 -41.18109 -55.84391 33783 ft 368 kts 217°
2026-04-29 00:22 -41.22220 -55.88446 33782 ft 368 kts 217°
2026-04-29 00:23 -41.26310 -55.92485 33780 ft 370 kts 218°
2026-04-29 00:23 -41.30448 -55.96581 33774 ft 371 kts 218°
2026-04-29 00:24 -41.34591 -56.00688 33771 ft 371 kts 218°
2026-04-29 00:24 -41.38735 -56.04801 33769 ft 372 kts 218°
2026-04-29 00:25 -41.42881 -56.08923 33771 ft 373 kts 219°
2026-04-29 00:25 -41.47018 -56.13045 33768 ft 374 kts 219°
2026-04-29 00:26 -41.51188 -56.17205 33760 ft 374 kts 219°
2026-04-29 00:26 -41.55356 -56.21369 33763 ft 374 kts 219°
2026-04-29 00:27 -41.59525 -56.25543 33756 ft 376 kts 219°
2026-04-29 00:27 -41.63691 -56.29721 33757 ft 378 kts 219°
2026-04-29 00:28 -41.67894 -56.33942 33752 ft 378 kts 219°
2026-04-29 00:28 -41.72095 -56.38167 33749 ft 378 kts 219°
2026-04-29 00:29 -41.76292 -56.42396 33750 ft 378 kts 219°
2026-04-29 00:29 -41.80479 -56.46622 33743 ft 380 kts 219°
2026-04-29 00:30 -41.84698 -56.50888 33741 ft 380 kts 219°
2026-04-29 00:30 -41.88917 -56.55161 33738 ft 380 kts 219°
2026-04-29 00:31 -41.93134 -56.59438 33732 ft 380 kts 220°
2026-04-29 00:31 -41.97345 -56.63719 33735 ft 384 kts 220°
2026-04-29 00:32 -42.01602 -56.68053 33730 ft 384 kts 220°
2026-04-29 00:32 -42.05860 -56.72393 33753 ft 384 kts 220°
2026-04-29 00:33 -42.10110 -56.76734 33717 ft 383 kts 220°
2026-04-29 00:33 -42.14368 -56.81093 33719 ft 386 kts 220°
2026-04-29 00:34 -42.18621 -56.85452 33721 ft 387 kts 220°
2026-04-29 00:34 -42.22902 -56.89845 33713 ft 387 kts 220°
2026-04-29 00:35 -42.27180 -56.94245 33710 ft 387 kts 220°
2026-04-29 00:35 -42.31463 -56.98659 33708 ft 388 kts 221°
2026-04-29 00:36 -42.35731 -57.03064 33708 ft 389 kts 221°
2026-04-29 00:36 -42.40030 -57.07510 33711 ft 389 kts 221°
2026-04-29 00:37 -42.44327 -57.11960 33702 ft 389 kts 221°
2026-04-29 00:37 -42.48593 -57.16387 33702 ft 389 kts 221°
2026-04-29 00:38 -42.52891 -57.20854 33697 ft 389 kts 221°
2026-04-29 00:38 -42.57184 -57.25325 33692 ft 389 kts 221°
2026-04-29 00:39 -42.61476 -57.29802 33694 ft 389 kts 221°
2026-04-29 00:39 -42.65772 -57.34291 33687 ft 391 kts 221°
2026-04-29 00:40 -42.70054 -57.38775 33684 ft 391 kts 221°
2026-04-29 00:40 -42.74364 -57.43296 33682 ft 391 kts 221°
2026-04-29 00:41 -42.78673 -57.47823 33675 ft 391 kts 221°
2026-04-29 00:41 -42.82979 -57.52355 33676 ft 392 kts 221°
2026-04-29 00:42 -42.87307 -57.56922 33669 ft 394 kts 221°
2026-04-29 00:42 -42.91614 -57.61471 33669 ft 394 kts 221°
2026-04-29 00:43 -42.95951 -57.66060 33664 ft 394 kts 221°
2026-04-29 00:43 -43.00285 -57.70655 33667 ft 395 kts 222°
2026-04-29 00:44 -43.04633 -57.75274 33659 ft 397 kts 222°
2026-04-29 00:44 -43.08961 -57.79881 33652 ft 397 kts 222°
2026-04-29 00:45 -43.13317 -57.84525 33651 ft 397 kts 222°
2026-04-29 00:45 -43.17672 -57.89176 33646 ft 397 kts 222°
2026-04-29 00:46 -43.22043 -57.93855 33639 ft 400 kts 223°
2026-04-29 00:46 -43.26428 -57.98557 33642 ft 400 kts 223°
2026-04-29 00:47 -43.30786 -58.03238 33647 ft 400 kts 223°
2026-04-29 00:47 -43.35176 -58.07961 33637 ft 401 kts 222°
2026-04-29 00:48 -43.39572 -58.12701 33629 ft 403 kts 223°
2026-04-29 00:48 -43.43982 -58.17467 33621 ft 404 kts 223°
2026-04-29 00:49 -43.48367 -58.22212 33620 ft 404 kts 223°
2026-04-29 00:49 -43.52780 -58.26997 33613 ft 404 kts 223°
2026-04-29 00:50 -43.57195 -58.31793 33617 ft 405 kts 223°
2026-04-29 00:50 -43.61627 -58.36619 33611 ft 406 kts 223°
2026-04-29 00:51 -43.66062 -58.41456 33610 ft 406 kts 223°
2026-04-29 00:51 -43.70461 -58.46262 33606 ft 406 kts 223°
2026-04-29 00:52 -43.74893 -58.51114 33599 ft 407 kts 224°
2026-04-29 00:52 -43.79336 -58.55990 33599 ft 408 kts 224°
2026-04-29 00:53 -43.83784 -58.60879 33591 ft 408 kts 224°
2026-04-29 00:53 -43.88201 -58.65743 33589 ft 408 kts 224°
2026-04-29 00:54 -43.92647 -58.70649 33592 ft 409 kts 224°
2026-04-29 00:54 -43.97102 -58.75575 33582 ft 410 kts 224°
2026-04-29 00:55 -44.01565 -58.80521 33591 ft 411 kts 224°
2026-04-29 00:55 -44.06031 -58.85478 33580 ft 411 kts 224°
2026-04-29 00:56 -44.10467 -58.90411 33590 ft 411 kts 225°
2026-04-29 00:56 -44.14937 -58.95393 33563 ft 413 kts 225°
2026-04-29 00:57 -44.19421 -59.00401 33578 ft 413 kts 225°
2026-04-29 00:57 -44.23906 -59.05419 33567 ft 413 kts 225°
2026-04-29 00:58 -44.28354 -59.10407 33579 ft 413 kts 224°
2026-04-29 00:58 -44.32837 -59.15445 33546 ft 414 kts 224°
2026-04-29 00:59 -44.37331 -59.20503 33562 ft 415 kts 224°
2026-04-29 00:59 -44.41821 -59.25567 33544 ft 415 kts 224°
2026-04-29 01:00 -44.46279 -59.30605 33550 ft 415 kts 224°
2026-04-29 01:00 -44.50766 -59.35687 33545 ft 415 kts 225°
2026-04-29 01:01 -44.55259 -59.40787 33537 ft 416 kts 225°
2026-04-29 01:01 -44.59754 -59.45899 33534 ft 416 kts 225°
2026-04-29 01:02 -44.64210 -59.50977 33527 ft 416 kts 225°
2026-04-29 01:02 -44.68703 -59.56106 33529 ft 416 kts 226°
2026-04-29 01:03 -44.73185 -59.61235 33523 ft 416 kts 226°
2026-04-29 01:03 -44.77671 -59.66380 33515 ft 416 kts 226°
2026-04-29 01:04 -44.82121 -59.71493 33512 ft 416 kts 226°
2026-04-29 01:04 -44.86601 -59.76650 33509 ft 416 kts 226°
2026-04-29 01:05 -44.91079 -59.81817 33506 ft 416 kts 226°
2026-04-29 01:05 -44.95560 -59.87001 33502 ft 418 kts 226°
2026-04-29 01:06 -45.00034 -59.92187 33489 ft 420 kts 226°
2026-04-29 01:06 -45.04546 -59.97422 33503 ft 420 kts 226°
2026-04-29 01:07 -45.09060 -60.02671 33483 ft 420 kts 226°
2026-04-29 01:07 -45.13567 -60.07926 33481 ft 420 kts 226°
2026-04-29 01:08 -45.18040 -60.13154 33473 ft 420 kts 226°
2026-04-29 01:08 -45.22544 -60.18427 33498 ft 420 kts 226°
2026-04-29 01:09 -45.27052 -60.23718 33471 ft 421 kts 226°
2026-04-29 01:09 -45.31579 -60.29043 33457 ft 424 kts 226°
2026-04-29 01:10 -45.36091 -60.34360 33460 ft 424 kts 226°
2026-04-29 01:10 -45.40631 -60.39719 33451 ft 424 kts 226°
2026-04-29 01:11 -45.45174 -60.45094 33449 ft 425 kts 227°
2026-04-29 01:11 -45.49724 -60.50492 33448 ft 426 kts 227°
2026-04-29 01:12 -45.54248 -60.55869 33438 ft 426 kts 227°
2026-04-29 01:12 -45.58798 -60.61288 33438 ft 426 kts 227°
2026-04-29 01:13 -45.63346 -60.66718 33431 ft 427 kts 227°
2026-04-29 01:13 -45.67920 -60.72195 33423 ft 430 kts 227°
2026-04-29 01:14 -45.72504 -60.77690 33420 ft 430 kts 227°
2026-04-29 01:14 -45.77055 -60.83156 33404 ft 430 kts 227°
2026-04-29 01:15 -45.81631 -60.88667 33418 ft 430 kts 227°
2026-04-29 01:15 -45.86218 -60.94205 33400 ft 431 kts 227°
2026-04-29 01:16 -45.90808 -60.99759 33400 ft 432 kts 228°
2026-04-29 01:16 -45.95364 -61.05281 33392 ft 431 kts 227°
2026-04-29 01:17 -45.99951 -61.10856 33396 ft 432 kts 227°
2026-04-29 01:17 -46.04555 -61.16465 33387 ft 434 kts 227°
2026-04-29 01:18 -46.09137 -61.22058 33386 ft 435 kts 227°
2026-04-29 01:18 -46.16053 -61.30522 33384 ft 435 kts 228°
2026-04-29 01:19 -46.20657 -61.36173 33381 ft 435 kts 228°
2026-04-29 01:19 -46.25259 -61.41836 33371 ft 435 kts 228°
2026-04-29 01:20 -46.29828 -61.47471 33377 ft 435 kts 227°
2026-04-29 01:20 -46.34428 -61.53159 33362 ft 435 kts 227°
2026-04-29 01:21 -46.39029 -61.58858 33392 ft 435 kts 228°
2026-04-29 01:21 -46.43636 -61.64581 33357 ft 438 kts 228°
2026-04-29 01:22 -46.48230 -61.70300 33344 ft 438 kts 228°
2026-04-29 01:22 -46.52856 -61.76069 33344 ft 438 kts 228°
2026-04-29 01:23 -46.57476 -61.81845 33342 ft 438 kts 228°
2026-04-29 01:23 -46.62100 -61.87642 33343 ft 440 kts 229°
2026-04-29 01:24 -46.66708 -61.93433 33334 ft 441 kts 228°
2026-04-29 01:24 -46.71347 -61.99273 33331 ft 441 kts 228°
2026-04-29 01:25 -46.75983 -62.05123 33328 ft 441 kts 228°
2026-04-29 01:25 -46.80618 -62.10987 33320 ft 442 kts 229°
2026-04-29 01:26 -46.85231 -62.16839 33322 ft 443 kts 229°
2026-04-29 01:26 -46.89882 -62.22753 33314 ft 443 kts 229°
2026-04-29 01:27 -46.94530 -62.28674 33309 ft 443 kts 229°
2026-04-29 01:27 -46.99172 -62.34602 33326 ft 443 kts 229°
2026-04-29 01:28 -47.03790 -62.40517 33299 ft 444 kts 229°
2026-04-29 01:28 -47.08447 -62.46492 33298 ft 445 kts 229°
2026-04-29 01:29 -47.13098 -62.52475 33291 ft 445 kts 229°
2026-04-29 01:29 -47.17748 -62.58472 33291 ft 445 kts 229°
2026-04-29 01:30 -47.22367 -62.64445 33291 ft 446 kts 229°
2026-04-29 01:30 -47.27032 -62.70492 33285 ft 447 kts 229°
2026-04-29 01:31 -47.31691 -62.76542 33295 ft 447 kts 229°
2026-04-29 01:31 -47.36348 -62.82606 33271 ft 446 kts 230°
2026-04-29 01:32 -47.41001 -62.88681 33274 ft 447 kts 230°
2026-04-29 01:32 -47.45631 -62.94743 33264 ft 448 kts 230°
2026-04-29 01:33 -47.50296 -63.00862 33259 ft 448 kts 230°
2026-04-29 01:33 -47.54956 -63.06990 33264 ft 448 kts 230°
2026-04-29 01:34 -47.59615 -63.13132 33262 ft 449 kts 230°
2026-04-29 01:34 -47.64247 -63.19255 33256 ft 450 kts 230°
2026-04-29 01:35 -47.68913 -63.25438 33249 ft 450 kts 230°
2026-04-29 01:35 -47.73573 -63.31626 33251 ft 449 kts 230°
2026-04-29 01:36 -47.78226 -63.37822 33259 ft 449 kts 229°
2026-04-29 01:36 -47.82848 -63.43993 33237 ft 449 kts 230°
2026-04-29 01:37 -47.87527 -63.50255 33237 ft 449 kts 230°
2026-04-29 01:37 -47.92142 -63.56447 33231 ft 449 kts 230°
2026-04-29 01:38 -47.96784 -63.62690 33231 ft 449 kts 230°
2026-04-29 01:38 -48.01418 -63.68940 33225 ft 449 kts 229°
2026-04-29 01:39 -48.06045 -63.75194 33219 ft 448 kts 229°
2026-04-29 01:39 -48.10634 -63.81414 33225 ft 448 kts 229°
2026-04-29 01:40 -48.15252 -63.87689 33217 ft 448 kts 229°
2026-04-29 01:40 -48.19867 -63.93977 33217 ft 448 kts 229°
2026-04-29 01:41 -48.24476 -64.00267 33213 ft 449 kts 228°
2026-04-29 01:41 -48.27038 -64.03022 33215 ft 460 kts 214°
2026-04-29 01:41 -48.29951 -64.04934 33216 ft 466 kts 206°
2026-04-29 01:42 -48.36099 -64.08170 33211 ft 470 kts 205°
2026-04-29 01:42 -48.42312 -64.11329 33208 ft 472 kts 205°
2026-04-29 01:43 -48.48535 -64.14496 33204 ft 470 kts 204°
2026-04-29 01:43 -48.54705 -64.17642 33203 ft 467 kts 204°
2026-04-29 01:44 -48.60811 -64.20767 33201 ft 466 kts 204°
2026-04-29 01:44 -48.66973 -64.23931 33201 ft 469 kts 205°
2026-04-29 01:45 -48.73166 -64.27117 33192 ft 471 kts 205°
2026-04-29 01:45 -48.79372 -64.30317 33211 ft 470 kts 204°
2026-04-29 01:46 -48.85521 -64.33494 33191 ft 465 kts 204°
2026-04-29 01:46 -48.91590 -64.36640 33196 ft 465 kts 204°
2026-04-29 01:47 -48.97736 -64.39837 33182 ft 468 kts 204°
2026-04-29 01:47 -49.03898 -64.43047 33193 ft 468 kts 204°
2026-04-29 01:48 -49.10062 -64.46267 33193 ft 468 kts 204°
2026-04-29 01:48 -49.16155 -64.49458 33183 ft 463 kts 204°
2026-04-29 01:49 -49.22245 -64.52657 33187 ft 463 kts 204°
2026-04-29 01:49 -49.28350 -64.55873 33185 ft 464 kts 204°
2026-04-29 01:50 -49.34460 -64.59099 33183 ft 464 kts 204°
2026-04-29 01:50 -49.40526 -64.62309 33183 ft 464 kts 204°
2026-04-29 01:51 -49.46628 -64.65548 33188 ft 463 kts 204°
2026-04-29 01:51 -49.52715 -64.68787 33180 ft 462 kts 204°
2026-04-29 01:52 -49.58793 -64.72030 33180 ft 462 kts 204°
2026-04-29 01:52 -49.64870 -64.75281 33178 ft 462 kts 204°
2026-04-29 01:53 -49.70904 -64.78517 33178 ft 462 kts 204°
2026-04-29 01:53 -49.76980 -64.81785 33209 ft 463 kts 204°
2026-04-29 01:54 -49.83075 -64.85073 33176 ft 465 kts 204°
2026-04-29 01:54 -49.89186 -64.88376 33180 ft 465 kts 204°
2026-04-29 01:55 -49.95250 -64.91664 33176 ft 465 kts 204°
2026-04-29 01:55 -50.01356 -64.94983 33191 ft 465 kts 204°
2026-04-29 01:56 -50.07470 -64.98315 33176 ft 466 kts 204°
2026-04-29 01:56 -50.13589 -65.01660 33179 ft 466 kts 204°
2026-04-29 01:57 -50.19708 -65.05012 33177 ft 466 kts 204°
2026-04-29 01:57 -50.25783 -65.08350 33178 ft 466 kts 204°
2026-04-29 01:58 -50.31899 -65.11721 33181 ft 467 kts 204°
2026-04-29 01:58 -50.38032 -65.15109 33177 ft 468 kts 204°
2026-04-29 01:59 -50.44170 -65.18510 33178 ft 468 kts 204°
2026-04-29 01:59 -50.50250 -65.21888 33183 ft 466 kts 204°
2026-04-29 02:00 -50.56351 -65.25286 33186 ft 465 kts 204°
2026-04-29 02:00 -50.62455 -65.28696 33181 ft 466 kts 204°
2026-04-29 02:01 -50.68573 -65.32123 33183 ft 467 kts 204°
2026-04-29 02:01 -50.74647 -65.35535 33185 ft 466 kts 204°
2026-04-29 02:02 -50.80755 -65.38975 33185 ft 465 kts 204°
2026-04-29 02:02 -50.86830 -65.42405 33184 ft 462 kts 204°
2026-04-29 02:03 -50.92881 -65.45833 33181 ft 462 kts 204°
2026-04-29 02:03 -50.98932 -65.49269 33181 ft 462 kts 204°
2026-04-29 02:04 -51.04937 -65.52690 33183 ft 462 kts 204°
2026-04-29 02:04 -51.10985 -65.56144 33184 ft 462 kts 204°
2026-04-29 02:05 -51.17024 -65.59602 33181 ft 459 kts 204°
2026-04-29 02:05 -51.23014 -65.63041 33186 ft 457 kts 204°
2026-04-29 02:06 -51.28993 -65.66485 33181 ft 457 kts 204°
2026-04-29 02:06 -51.34934 -65.69917 33178 ft 457 kts 204°
2026-04-29 02:07 -51.40914 -65.73380 33181 ft 457 kts 204°
2026-04-29 02:07 -51.46892 -65.76851 33188 ft 457 kts 204°
2026-04-29 02:08 -51.52877 -65.80337 33178 ft 458 kts 204°
2026-04-29 02:08 -51.58832 -65.83814 33181 ft 458 kts 204°
2026-04-29 02:09 -51.64820 -65.87320 33177 ft 458 kts 204°
2026-04-29 02:09 -51.70810 -65.90838 33181 ft 458 kts 204°
2026-04-29 02:10 -51.76801 -65.94366 33181 ft 459 kts 205°
2026-04-29 02:10 -51.82769 -65.97892 33177 ft 460 kts 205°
2026-04-29 02:11 -51.88762 -66.01440 33174 ft 456 kts 204°
2026-04-29 02:11 -51.94701 -66.04966 33177 ft 455 kts 204°
2026-04-29 02:12 -52.00642 -66.08506 33180 ft 455 kts 204°
2026-04-29 02:12 -52.06541 -66.12030 33194 ft 455 kts 204°
2026-04-29 02:13 -52.12490 -66.15593 33188 ft 456 kts 204°
2026-04-29 02:13 -52.18448 -66.19172 33211 ft 456 kts 204°
2026-04-29 02:14 -52.24383 -66.22748 33176 ft 453 kts 204°
2026-04-29 02:14 -52.30295 -66.26319 33185 ft 453 kts 204°
2026-04-29 02:15 -52.36160 -66.29873 33185 ft 453 kts 204°
2026-04-29 02:15 -52.42082 -66.33472 33183 ft 455 kts 204°
2026-04-29 02:16 -52.48016 -66.37087 33183 ft 455 kts 204°
2026-04-29 02:16 -52.53946 -66.40710 33187 ft 455 kts 204°
2026-04-29 02:17 -52.59835 -66.44319 33183 ft 455 kts 204°
2026-04-29 02:17 -52.65762 -66.47963 33186 ft 455 kts 204°
2026-04-29 02:18 -52.71700 -66.51623 33186 ft 456 kts 204°
2026-04-29 02:18 -52.77651 -66.55302 33186 ft 456 kts 204°
2026-04-29 02:19 -52.83602 -66.58991 33186 ft 457 kts 204°
2026-04-29 02:19 -52.89508 -66.62664 33186 ft 457 kts 204°
2026-04-29 02:20 -52.95446 -66.66367 33196 ft 455 kts 204°
2026-04-29 02:20 -53.01376 -66.70077 33189 ft 456 kts 204°
2026-04-29 02:21 -53.07311 -66.73799 33191 ft 456 kts 204°
2026-04-29 02:21 -53.13247 -66.77534 33191 ft 456 kts 204°
2026-04-29 02:22 -53.19140 -66.81253 33191 ft 456 kts 204°
2026-04-29 02:22 -53.25071 -66.85007 33206 ft 456 kts 205°
2026-04-29 02:23 -53.31004 -66.88775 33197 ft 455 kts 205°
2026-04-29 02:23 -53.36916 -66.92538 33200 ft 454 kts 205°
2026-04-29 02:24 -53.42788 -66.96287 33204 ft 454 kts 205°
2026-04-29 02:25 -53.51642 -67.01962 32753 ft 454 kts 205°
2026-04-29 02:25 -53.54590 -67.03856 32324 ft 453 kts 205°
2026-04-29 02:25 -53.57538 -67.05755 31627 ft 455 kts 205°
2026-04-29 02:25 -53.60504 -67.07669 30936 ft 458 kts 205°
2026-04-29 02:26 -53.63493 -67.09601 30232 ft 462 kts 205°
2026-04-29 02:26 -53.66505 -67.11551 29462 ft 466 kts 205°
2026-04-29 02:26 -53.69500 -67.13491 28719 ft 467 kts 205°
2026-04-29 02:26 -53.72518 -67.15446 28228 ft 462 kts 205°
2026-04-29 02:27 -53.75511 -67.17387 27677 ft 459 kts 205°
2026-04-29 02:27 -53.78475 -67.19315 27132 ft 455 kts 205°
2026-04-29 02:27 -53.81419 -67.21233 26586 ft 452 kts 204°
2026-04-29 02:27 -53.84344 -67.23142 26041 ft 449 kts 204°
2026-04-29 02:28 -53.87246 -67.25040 25493 ft 446 kts 204°
2026-04-29 02:28 -53.90140 -67.26934 24944 ft 444 kts 204°
2026-04-29 02:28 -53.93011 -67.28817 24400 ft 442 kts 204°
2026-04-29 02:28 -53.95832 -67.30669 23899 ft 439 kts 204°
2026-04-29 02:29 -53.98661 -67.32529 23422 ft 435 kts 204°
2026-04-29 02:29 -54.01463 -67.34375 22988 ft 430 kts 204°
2026-04-29 02:29 -54.04219 -67.36191 22757 ft 419 kts 204°
2026-04-29 02:29 -54.06008 -67.37372 22405 ft 416 kts 204°
2026-04-29 02:30 -54.09605 -67.39751 21618 ft 412 kts 204°
2026-04-29 02:30 -54.12266 -67.41514 21071 ft 408 kts 204°
2026-04-29 02:30 -54.14013 -67.42672 20715 ft 406 kts 204°
2026-04-29 02:30 -54.17477 -67.44972 20024 ft 401 kts 204°
2026-04-29 02:31 -54.20075 -67.46700 19467 ft 399 kts 204°
2026-04-29 02:31 -54.22642 -67.48409 18938 ft 395 kts 204°
2026-04-29 02:31 -54.25197 -67.50113 18439 ft 392 kts 204°
2026-04-29 02:31 -54.27722 -67.51799 17931 ft 388 kts 203°
2026-04-29 02:32 -54.30229 -67.53475 17443 ft 385 kts 203°
2026-04-29 02:32 -54.31880 -67.54580 17044 ft 383 kts 203°
2026-04-29 02:32 -54.34352 -67.56236 16469 ft 380 kts 203°
2026-04-29 02:32 -54.37597 -67.58414 15738 ft 376 kts 203°
2026-04-29 02:33 -54.40007 -67.60032 15279 ft 371 kts 203°
2026-04-29 02:33 -54.42407 -67.61647 14663 ft 370 kts 203°
2026-04-29 02:33 -54.44798 -67.63259 14119 ft 368 kts 203°
2026-04-29 02:33 -54.47168 -67.64858 13591 ft 365 kts 203°
2026-04-29 02:34 -54.48740 -67.65849 13363 ft 361 kts 199°
2026-04-29 02:34 -54.51209 -67.66577 12743 ft 364 kts 183°
2026-04-29 02:34 -54.53740 -67.66461 12142 ft 363 kts 178°
2026-04-29 02:34 -54.56247 -67.66171 11655 ft 359 kts 177°
2026-04-29 02:35 -54.59495 -67.65775 11242 ft 346 kts 177°
2026-04-29 02:35 -54.61863 -67.65494 10975 ft 337 kts 178°
2026-04-29 02:35 -54.63430 -67.65313 10840 ft 330 kts 178°
2026-04-29 02:35 -54.65646 -67.65060 10698 ft 318 kts 178°
2026-04-29 02:36 -54.67831 -67.64811 10381 ft 312 kts 178°
2026-04-29 02:36 -54.69981 -67.64567 10077 ft 306 kts 178°
2026-04-29 02:36 -54.72067 -67.64330 9900 ft 295 kts 178°
2026-04-29 02:36 -54.74090 -67.64104 9466 ft 289 kts 178°
2026-04-29 02:37 -54.76096 -67.63886 8938 ft 288 kts 178°
2026-04-29 02:37 -54.78077 -67.63813 8439 ft 282 kts 187°
2026-04-29 02:37 -54.79921 -67.64732 7968 ft 273 kts 211°
2026-04-29 02:37 -54.81293 -67.66820 7520 ft 265 kts 237°
2026-04-29 02:38 -54.81895 -67.69764 7167 ft 258 kts 260°
2026-04-29 02:38 -54.82082 -67.72826 6804 ft 252 kts 263°
2026-04-29 02:38 -54.82253 -67.75798 6453 ft 243 kts 263°
2026-04-29 02:38 -54.82390 -67.78699 6127 ft 240 kts 264°
2026-04-29 02:39 -54.82508 -67.81578 5795 ft 239 kts 264°
2026-04-29 02:39 -54.82616 -67.84446 5492 ft 237 kts 264°
2026-04-29 02:39 -54.82719 -67.87287 5179 ft 236 kts 264°
2026-04-29 02:39 -54.82819 -67.90099 5065 ft 234 kts 264°
2026-04-29 02:40 -54.82922 -67.92926 4844 ft 236 kts 264°
2026-04-29 02:40 -54.83031 -67.95733 4495 ft 237 kts 264°
2026-04-29 02:40 -54.83144 -67.98605 4083 ft 240 kts 264°
2026-04-29 02:40 -54.83256 -68.01510 3666 ft 243 kts 265°
2026-04-29 02:41 -54.83367 -68.04442 3286 ft 244 kts 264°
2026-04-29 02:41 -54.83470 -68.07307 2888 ft 232 kts 265°
2026-04-29 02:41 -54.83575 -68.10019 2480 ft 218 kts 265°
2026-04-29 02:41 -54.83679 -68.12564 2100 ft 207 kts 265°
2026-04-29 02:42 -54.83774 -68.15040 1747 ft 204 kts 266°
2026-04-29 02:42 -54.83865 -68.17444 1449 ft 194 kts 266°
2026-04-29 02:42 -54.83950 -68.19662 1185 ft 179 kts 266°
2026-04-29 02:42 -54.84029 -68.21723 910 ft 165 kts 265°
2026-04-29 02:43 -54.84102 -68.23630 651 ft 152 kts 265°
2026-04-29 02:43 -54.84172 -68.25424 288 ft 148 kts 264°
2026-04-29 02:43 -54.84249 -68.27134 167 ft 143 kts 264°
2026-04-29 02:43 -54.84319 -68.28760 105 ft 125 kts 264°
2026-04-29 02:44 -54.84348 -68.29868 110 ft 50 kts 267°
2026-04-29 02:44 -54.84353 -68.30157 108 ft 24 kts 272°
2026-04-29 02:44 -54.84361 -68.30440 109 ft 24 kts 265°
2026-04-29 02:44 -54.84373 -68.30737 111 ft 24 kts 268°
2026-04-29 02:45 -54.84335 -68.30948 114 ft 14 kts 346°
2026-04-29 02:45 -54.84242 -68.30964 111 ft 13 kts 353°
2026-04-29 02:45 -54.84151 -68.30983 113 ft 14 kts 354°
2026-04-29 02:45 -54.84097 -68.31065 112 ft 10 kts 271°
2026-04-29 02:46 -54.84083 -68.31179 112 ft 9 kts 319°
2026-04-29 02:46 -54.84025 -68.31187 112 ft 9 kts
2026-04-29 02:46 -54.84005 -68.31188 113 ft 0 kts 358°